Weather Roundup
Issued by NWS

Home | Current Version | Previous Version | Text Only | Print | Product List | Glossary On
Versions: 1 2 3 4 5 6 7 8 9 10 11 12 13 14 15 16 17 18 19 20 21 22 23 24 25 26 27 28 29 30 31 32 33 34 35 36 37 38 39 40 41 42 43 44 45 46 47 48 49 50
052
NZUS93 KARX 300359
HRRWXR

CURRENT HOURLY OBSERVATIONS ACROSS
MUCH OF THE UPPER MISSISSIPPI VALLEY
NATIONAL WEATHER SERVICE LA CROSSE WI
1100 PM CDT FRI JUL 29 2016


...SOUTHEAST MINNESOTA...


CITY           SKY/WX    TMP DP  RH WIND       PRES   REMARKS
ROCHESTER      CLOUDY    67  61  81 N3        30.04S
ROCHESTER/MAYO CLOUDY    69  57  64 CALM      30.04S
WINONA         CLEAR     70  64  83 CALM      30.02S
AUSTIN         CLOUDY    64  61  88 CALM      30.03S
ALBERT LEA     MOCLDY    63  63 100 CALM      30.04S
DODGE CENTER   MOCLDY    64  57  77 N3        30.04S
PRESTON        CLOUDY    65  62  90 NE5       30.03F
OWATONNA       PTCLDY    61  57  88 CALM      30.05R
FARIBAULT      CLEAR     61  57  88 CALM      30.05R
$$

...ELSEWHERE IN MINNESOTA...


CITY           SKY/WX    TMP DP  RH WIND       PRES   REMARKS
MINNEAPOLIS    MOCLDY    69  56  62 N5        30.03S
INTNL FALLS    CLOUDY    63  58  83 CALM      30.03R
DULUTH         CLEAR     57  51  80 CALM      30.08R
RED WING       CLEAR     63  61  94 CALM      30.01F
REDWOOD FALLS  CLEAR     66  56  70 CALM      30.05R
MANKATO        PTCLDY    64  52  63 CALM      30.05S
WORTHINGTON    CLEAR     61  57  87 CALM      30.08S
FAIRMONT       MOCLDY    61  55  82 CALM      30.04S
$$

...SOUTHWEST WISCONSIN...


CITY           SKY/WX    TMP DP  RH WIND       PRES   REMARKS
LA CROSSE      MOCLDY    68  65  90 N3        30.01S
PRAIRIE DU CHI CLOUDY    66  64  91 CALM      29.99S
BOSCOBEL       PTCLDY    66  64  93 CALM      30.00S FOG
LONE ROCK      NOT AVBL
PLATTEVILLE    CLEAR     67  67  99 NE6       30.00S
FORT MC COY    CLEAR     63  62  97 CALM      30.03S
MAUSTON-NEW LI CLOUDY    65  65  98 CALM      30.01F FOG
VIROQUA        FAIR      64  64 100 E3        30.02S
WIS DELLS      NOT AVBL
$$

...ELSEWHERE IN WISCONSIN...


CITY           SKY/WX    TMP DP  RH WIND       PRES   REMARKS
MILWAUKEE      CLOUDY    70  65  84 N9        29.98F
MADISON        PTCLDY    67  60  78 NE6       30.00F
GREEN BAY      CLOUDY    66  58  75 NE8       30.03S
EAU CLAIRE     NOT AVBL
BLACK RVR FLS  FAIR      61  61 100 CALM      30.02F FOG
MEDFORD        CLEAR     60  60 100 E3        30.07S
WAUSAU         CLEAR     63  60  90 CALM      30.05S
WIS RAPIDS     CLEAR     66  59  78 E6        30.05S
MARSHFIELD     CLEAR     64  60  87 E5        30.04F
RICE LAKE      CLEAR     63  58  82 NE5       30.06S
$$

...NORTHEAST IOWA...


CITY           SKY/WX    TMP DP  RH WIND       PRES   REMARKS
WATERLOO       MOCLDY    67  64  90 N6        29.99S
DUBUQUE        CLOUDY    68  66  93 NE6       30.00S
DECORAH        CLOUDY    66  66 100 CALM      30.01S
MASON CITY     CLOUDY    67  64  90 N5        30.04S
CHARLES CITY   PTCLDY    66  66 100 E5        30.03R
OELWEIN        CLOUDY    66  64  94 NW5       30.01S
$$

...ELSEWHERE IN IOWA...


CITY           SKY/WX    TMP DP  RH WIND       PRES   REMARKS
DES MOINES     MOCLDY    69  64  84 NW6       30.00S
IOWA CITY      MOCLDY    70  66  87 N9        29.97S
FORT DODGE     CLOUDY    66  63  88 CALM      30.04S
MARSHALLTOWN   PTCLDY    65  64  97 N3        30.00R
CEDAR RAPIDS   CLOUDY    68  68 100 N8        29.97R
$$

...NORTHERN ILLINOIS...


CITY           SKY/WX    TMP DP  RH WIND       PRES   REMARKS
CHICAGO-OHARE  CLOUDY    70  67  90 N7        29.95S
CHICAGO-MIDWAY CLOUDY    74  65  73 NE8       29.94S
MOLINE         CLOUDY    71  66  84 E7        29.95S
ROCKFORD       CLOUDY    69  65  86 NE8       29.98S
PEORIA         CLEAR     70  68  93 N5        29.93R
$$

NOTE: "FAIR" INDICATES FEW OR NO CLOUDS BELOW 12,000 FEET WITH NO
SIGNIFICANT WEATHER AND/OR OBSTRUCTIONS TO VISIBILITY. WIND
SPEEDS ARE IN MILES-PER-HOUR.




USA.gov is the U.S. government's official web portal to all federal, state and local government web resources and services.